Location: Unspecified
(51.2667°N, 0.0000°E)
Time: 23:23:50
(UTC+00:00)

nSIGHT-1 - Pass Details

Date: 25 September 2019
Orbit: 337 x 344 km, 51.6° (Epoch: 14 October)

Event Time Altitude Azimuth Distance (km) Brightness Sun altitude
Rises 18:27:29 0° 283° (WNW) 2,155 ? -6.3°
Reaches altitude 10° 18:29:34 10° 276° (W) 1,308 ? -6.7°
Maximum altitude 18:32:19 38° 206° (SSW) 547 ? -7.1°
Drops below altitude 10° 18:35:02 10° 135° (SE) 1,295 ? -7.5°
Enters shadow 18:35:35 - 132° (SE) 1,518 ? -7.6°
